www.pogodaiklimat.ru

Погода и климат >> Архив погоды >> Индия >> Jodhpur


ПОГОДА в Jodhpur

  • Прогноз погоды в Jodhpur
  • Монитор погоды в Jodhpur
  • Климат города

АРХИВ ПОГОДЫ в Jodhpur

Время (UTC), дата Ветер
(напр.,м/с)
 
Видим.   Явления Облачность Т
(С)
Тd
(С)
f
(%)
Тe
(С)
Тes
(С)
Комфортность P
(гПа)
Po
(гПа)
Тmin
(С)
Tmax
(С)
R
(мм)
R24
(мм)
S
(см)
09 13.09 ЮЗ 3 2000 м мгла 5/5 900 м
[Sc]
+32.2 +20.3 49 +39 +45 очень
душно
1003.7 1004.0
12 13.09 Ю 2 2000 м мгла 4/4 900 м
[Sc]
+31.4 +19.2 48 +37 +38 очень
душно
1003.5 1004.0 +33.2
15 13.09 ЮЗ 2 2000 м мгла ясно +29.2 +19.8 57 +35 +35 очень
душно
1004.7 1005.0
18 13.09 Ю 1 2000 м мгла ясно +27.2 +20.2 66 +34 +34 очень
душно
1004.8 1005.0
21 13.09 штиль 0 2000 м мгла 5/5 900 м
[Sc]
+26.0 +20.2 70 +32 +32 очень
душно
1000.0 1000.0
00 14.09 Ю 1 2000 м мгла ясно +24.8 +19.9 74 +30 +30 душно 1005.2 1005.0
03 14.09 ЮЗ 1 2000 м мгла 8/5 900 м
[Sc Ac trans]
+27.0 +21.0 70 +34 +36 очень
душно
1007.9 1008.0 +24.1 +33.2
06 14.09 ЮЗ 1 2000 м мгла 6/4 900 м
[Sc Ac trans]
+29.8 +19.4 54 +36 +45 очень
душно
1008.3 1008.0
09 14.09 ЮЗ 2 2000 м мгла 6/6 900 м
[Sc]
+32.6 +19.6 46 +38 +44 очень
душно
1006.4 1006.0
12 14.09 ЮЗ 2 2000 м мгла 5/5 900 м
[Sc]
+32.2 +18.3 44 +37 +38 очень
душно
1006.2 1006.0 +33.4
15 14.09 ЮЗ 1 2000 м мгла 3/3 900 м
[Sc]
+29.2 +18.7 53 +34 +34 очень
душно
1007.0 1007.0
18 14.09 штиль 0 2000 м мгла ясно +27.4 +19.4 62 +33 +33 очень
душно
1008.2 1008.0
21 14.09 штиль 0 2000 м мгла ясно +26.2 +19.9 68 +32 +32 очень
душно
1006.8 1007.0
00 15.09 штиль 0 2000 м мгла ясно +24.6 +20.6 78 +31 +31 очень
душно
1008.3 1008.0
03 15.09 штиль 0 2000 м мгла ясно +26.8 +20.1 67 +33 +39 очень
душно
1010.0 1010.0 +23.7 +33.4
06 15.09 ЮЗ 1 2000 м мгла 6/6 900 м
[Sc]
+31.0 +20.1 52 +37 +46 очень
душно
1010.3 1010.0
09 15.09 ЮЗ 2 2000 м мгла 6/6 900 м
[Sc]
+33.0 +18.6 43 +38 +44 очень
душно
1008.4 1008.0
12 15.09 Ю 1 2000 м мгла 4/4 900 м
[Sc]
+33.2 +18.5 42 +38 +39 очень
душно
1007.1 1007.0 +34.4
15 15.09 штиль 0 2000 м мгла ясно +28.2 +20.7 64 +35 +35 очень
душно
1007.9 1008.0
18 15.09 штиль 0 2000 м мгла ясно +26.4 +21.6 75 +34 +34 очень
душно
1008.7 1009.0
21 15.09 штиль 0 2000 м мгла ясно +26.0 +22.1 79 +34 +34 очень
душно
1008.0 1008.0
00 16.09 штиль 0 2000 м мгла ясно +23.4 +20.3 83 +31 +31 очень
душно
1008.4 1008.0
03 16.09 штиль 0 2000 м мгла ясно +27.0 +19.3 63 +33 +38 очень
душно
1010.1 1010.0 +23.0 +34.4
06 16.09 штиль 0 2000 м мгла 4/4 900 м
[Sc]
+32.4 +19.0 45 +38 +51 опасность
солнечного
удара
1009.6 1010.0
09 16.09 ЮВ 1 2000 м мгла 5/5 900 м
[Cu hum]
+34.4 +17.3 36 +38 +46 очень
душно
1006.5 1007.0
12 16.09 штиль 0 2000 м мгла 4/4 900 м
[Sc diur, vesp]
+34.8 +15.8 32 +37 +38 очень
душно
1005.3 1005.0 +36.0
15 16.09 штиль 0 2000 м мгла 4/0
[Ac trans]
+28.8 +20.0 59 +35 +35 очень
душно
1006.9 1007.0
18 16.09 штиль 0 2000 м мгла ясно +26.2 +19.1 65 +31 +31 очень
душно
1007.7 1008.0
21 16.09 штиль 0 2000 м мгла ясно +24.8 +18.5 68 +29 +29 душно 1006.4 1006.0
00 17.09 штиль 0 2000 м мгла ясно +25.0 +18.0 65 +29 +29 душно 1006.9 1007.0
03 17.09 З 1 2000 м мгла ясно +28.2 +17.5 52 +32 +37 душно 1008.3 1008.0 +24.2 +36.0
06 17.09 С 1 2000 м мгла 1/1 750 м
[Cu hum]
+33.2 +17.3 39 +37 +54 опасность
солнечного
удара
1007.8 1008.0
09 17.09 штиль 0 2000 м мгла 5/5 750 м
[Cu med, cong]
+36.0 +14.5 28 +37 +47 душно 1005.6 1006.0
12 17.09 штиль 0 2000 м мгла 4/4 750 м
[Sc diur, vesp]
+35.6 +13.4 26 +36 +37 очень
жарко
1004.6 1005.0 +36.4
15 17.09 штиль 0 2000 м мгла 4/0 2000 м
[Ac trans]
+30.6 +17.8 46 +35 +35 очень
душно
1006.1 1006.0
18 17.09 штиль 0 2000 м мгла ясно +27.4 +19.7 63 +33 +33 очень
душно
1007.0 1007.0
21 17.09 штиль 0 2000 м мгла ясно +26.0 +19.2 66 +31 +31 очень
душно
1006.1 1006.0
00 18.09 штиль 0 2000 м мгла ясно +25.2 +18.6 67 +30 +30 душно 1006.8 1007.0
03 18.09 ЮЗ 2 2000 м мгла ясно +28.8 +19.6 58 +35 +39 очень
душно
1008.1 1008.0 +25.2 +36.4
06 18.09 З 1 2000 м мгла ясно +33.8 +18.9 41 +39 +58 опасность
солнечного
удара
1007.9 1008.0
09 18.09 ЮЗ 1 2000 м мгла 5/5 900 м
[Cu med, cong]
+36.4 +16.4 31 +39 +47 очень
душно
1005.4 1005.0
12 18.09 ЮЗ 1 2000 м мгла 5/5 900 м
[Sc]
+36.0 +16.7 32 +39 +40 очень
душно
1004.4 1004.0 +37.2
15 18.09 штиль 0 2000 м мгла 4/4 1050 м
[Sc]
+30.8 +18.4 48 +36 +36 очень
душно
1006.1 1006.0
18 18.09 штиль 0 2000 м мгла ясно +29.4 +17.1 48 +33 +33 душно 1006.7 1007.0
21 18.09 ЮЗ 1 2000 м мгла ясно +28.8 +16.7 48 +32 +32 душно 1006.3 1006.0
00 19.09 З 1 2000 м мгла ясно +27.6 +17.8 55 +32 +32 очень
душно
1006.8 1007.0
03 19.09 ЮЗ 1 2000 м мгла ясно +28.6 +18.3 54 +33 +38 очень
душно
1009.2 1009.0 +26.7 +37.2
06 19.09 ЮЗ 1 2000 м мгла ясно +33.4 +18.0 40 +38 +56 опасность
солнечного
удара
1008.6 1009.0
09 19.09 СЗ 1 2000 м мгла 3/0 2000 м
[Ac trans]
+36.8 +16.1 29 +39 +52 опасность
солнечного
удара
1005.2 1005.0
12 19.09 штиль 0 2000 м мгла ясно +36.6 +12.5 24 +37 +39 очень
жарко
1003.7 1004.0 +37.4
15 19.09 штиль 0 2000 м мгла ясно +28.4 +16.6 49 +32 +32 душно 1004.9 1005.0
18 19.09 штиль 0 2000 м мгла ясно +26.0 +16.3 55 +29 +29 душно 1005.9 1006.0
21 19.09 штиль 0 2000 м мгла ясно +25.2 +15.7 56 +28 +28 жарко 1005.1 1005.0
00 20.09 З 2 2000 м мгла ясно +27.8 +16.2 49 +31 +31 душно 1005.4 1005.0
03 20.09 СЗ 1 2000 м мгла ясно +28.0 +18.0 55 +33 +37 очень
душно
1007.9 1008.0 +25.5 +37.2

 

Местоположение метеостанции Jodhpur (Rajasthan, Индия): широта 26.30 долгота 73.02 высота над уровнем моря 224 м.

В архиве по умолчанию представлена погода в Jodhpur за последнюю неделю. Архивные данные за месяц целиком и за предыдущие месяцы, начиная с января 2011 года, Вы можете получить, выбрав интересующий диапазон дат из раскрывающегося списка и нажав кнопку "Ввод!".


*Определитесь, кто Вы:
робот инопланетянин человек

Внимание! Время в таблицах - всемирное. Для получения местного времени необходимо прибавить поправку, которая в Jodhpur равна 5.5 ч.

Смотрите также архив погоды в соседних городах и на ближайших метеорологических станциях:

Погода в Ajmer (Rajasthan, Индия) (160 км)
Погода в Barmer (Rajasthan, Индия) (175 км)
Погода в Bikaner (Rajasthan, Индия) (191 км)
Погода в Mount Abu (Rajasthan, Индия) (191 км)
Погода в Bhilwara (Rajasthan, Индия) (193 км)
Погода в Maharana Pratap Airport (Rajasthan, Индия) (206 км)
Погода в Jaisalmer (Rajasthan, Индия) (219 км)
Погода в Chittorgarh (Rajasthan, Индия) (226 км)
Погода в Deesa (Gujarat, Индия) (248 км)
Погода в Jaipur (Rajasthan, Индия) (283 км)

Пояснения к столбцам:

Ветер - указаны скорость ветра в м/с - средняя за 10 мин, порывы в срок и между сроками (в фигурных скобках) и направление, откуда дует ветер: С - северный, СВ - северо-восточный, В - восточный, ЮВ - юго-восточный, Ю - южный, ЮЗ - юго-западный, З - западный, СЗ - северо-западный.
Видимость - горизонтальная дальность видимости в метрах или километрах. При видимости от 1 до 10 км при отсутствии осадков обычно наблюдается дымка, при ухудшении видимости до 1 км и менее - туман. В сухую погоду видимость может ухудшаться дымом, пылью или мглою.
Явления - указаны атмосферные явления, наблюдавшиеся в срок или в последний час перед сроком; фигурными скобками обозначены явления, наблюдавшиеся между сроками (за 1-3 часа до срока); квадратными скобками обозначены град или гололедные отложения с указанием их диаметра в мм.
Облачность - указаны через наклонную черту общая и нижняя облачность в баллах и высота нижней границы облаков в метрах; квадратными скобками обозначены формы облаков: Ci - перистые, Cs - перисто-слоистые, Cc - перисто-кучевые, Ac - высококучевые, As - высокослоистые, Sc - слоисто-кучевые, Ns - слоисто-дождевые, Cu - кучевые, Cb - кучево-дождевые. Подробнее классификацию облаков см. в Атласе облаков (PDF).
T - Температура воздуха - температура, измеренная на высоте 2 м над землей.
Td - Температура точки росы - температура, при понижении до которой содержащийся в воздухе водяной пар достигнет насыщения.
f - Относительная влажность воздуха - влажноcть воздуха, измеренная на высоте 2 м над землей.
Te - Эффективная температура - температура, которую ощущает одетый по сезону человек в тени. Характеристика душности погоды. При расчете учитывается влияние влажности воздуха и скорости ветра на теплоощущения человека.
Tes - Эффективная температура на солнце - температура, которую ощущает человек, с поправкой на солнечный нагрев. Характеристика знойности погоды. Зависит от высоты солнца над горизонтом, облачности и скорости ветра. Ночью, в пасмурную погоду, а также при ветре 12 м/с и более поправка равна нулю.
P - Атмосферное давление - приведенное к уровню моря атмосферное давление.
Po - Атмосферное давление - измеренное на уровне метеостанции атмосферное давление.
Tmin - Минимальная температура - минимум температуры воздуха на высоте 2 м над землей.
Tmax - Максимальная температура - максимум температуры воздуха на высоте 2 м над землей.
R - Количество осадков - Количество выпавших осадков за период времени, мм. При наведении курсора мыши на число - период времени, за который выпало указанное количество осадков.
R24 - Количество осадков - Количество выпавших осадков за 24 часа, мм.
S - Снежный покров - Высота снежного покрова, см. При наведении курсора мыши на число - состояние снежного покрова и степень покрытия местности в баллах.